This is the latest recevied weather packets stored in our database for station/object KE9ADS. If no packets are shown the sender has not sent any weather packets the latest 10 day(s).
| Time | Temp. | Humidity | Pressure | Rain* | Wind** | Luminosity | Snow |
|---|---|---|---|---|---|---|---|
| 1777581150 | 13.33° C | 64% | 1017.7 hPa | 0 mm | - | 217 W/m² | - |
| 1777580546 | 12.78° C | 70% | 1017.8 hPa | 0 mm | - | 216 W/m² | - |
| 1777579945 | 12.22° C | 68% | 1018 hPa | 0 mm | - | 166 W/m² | - |
| 1777579344 | 12.22° C | 71% | 1018.1 hPa | 0 mm | - | 165 W/m² | - |
| 1777578740 | 11.67° C | 71% | 1018.3 hPa | 0 mm | - | 164 W/m² | - |
| 1777578136 | 11.11° C | 71% | 1018.3 hPa | 0 mm | - | 101 W/m² | - |
| 1777577534 | 11.11° C | 72% | 1018.5 hPa | 0 mm | - | 87 W/m² | - |
| 1777576933 | 11.11° C | 73% | 1018.4 hPa | 0 mm | - | 125 W/m² | - |
| 1777576329 | 11.11° C | 74% | 1018.4 hPa | 0 mm | - | 197 W/m² | - |
| 1777575728 | 10.56° C | 78% | 1018.7 hPa | 1.78 mm | - | 189 W/m² | - |
| 1777575126 | 10.56° C | 76% | 1019 hPa | 0 mm | - | 82 W/m² | - |
| 1777574526 | 10.56° C | 74% | 1018.9 hPa | 0 mm | - | 101 W/m² | - |
| 1777573922 | 10.56° C | 71% | 1018.9 hPa | 0 mm | - | 79 W/m² | - |
| 1777573318 | 11.67° C | 70% | 1019.1 hPa | 0 mm | - | 87 W/m² | - |
| 1777572716 | 11.67° C | 67% | 1019.1 hPa | 0 mm | - | 91 W/m² | - |
| 1777572114 | 12.22° C | 64% | 1019 hPa | 0 mm | - | 107 W/m² | - |
| 1777571511 | 12.22° C | 62% | 1019.2 hPa | 0 mm | - | 146 W/m² | - |
| 1777570909 | 12.22° C | 62% | 1019.5 hPa | 0 mm | - | 168 W/m² | - |
| 1777570309 | 12.78° C | 59% | 1019.5 hPa | 0 mm | - | 223 W/m² | - |
| 1777569706 | 12.22° C | 58% | 1019.6 hPa | 0 mm | - | 195 W/m² | - |
| 1777569104 | 12.78° C | 56% | 1019.6 hPa | 0 mm | - | 169 W/m² | - |
| 1777568499 | 12.78° C | 54% | 1019.5 hPa | 0 mm | - | 228 W/m² | - |
| 1777567898 | 13.33° C | 53% | 1019.5 hPa | 0 mm | - | 155 W/m² | - |
| 1777567297 | 13.33° C | 51% | 1019.7 hPa | 0 mm | - | 226 W/m² | - |
| 1777566693 | 13.89° C | 51% | 1019.6 hPa | 0 mm | - | 366 W/m² | - |
* Rain latest hour (hover to see other rain measurements)
** Current wind speed in m/s (hover to see current wind gust speed)